Date String (YYYY-MM-DD hh:mm:ss) UTC,Instrument flags,absolute air pressure of the measurement (hPa),sample flow rate (lpm),inlet stack bypass flow (lpm),air temperature of the measurement (°C),ambient temperature measured by the external sensor (°C),aerosol sample conditioner tube jacket temperature (°C),OPC LED temperature (°C),internal box temperature (°C),relative humidity of the measurement (%),span deviation,mass concentration of particles derived from Lorenz-Mie calculation of OPC scattering (μg/m³),mass concentration of particles derived from Lorenz-Mie calculation of OPC scattering (μg/m³),mass concentration of particles derived from Lorenz-Mie calculation of OPC scattering (μg/m³)
DateTimeUTC,F1_M11,P_M11,Q1_M11,Q2_M11,T1_M11,T2_M11,T3_M11,T4_M11,T5_M11,U1_M11,ZSPAN_M11,X0_M11,X2_M11,X1_M11
2023-08-14 21:00:00,SystemResetWarning,0839.3,4.98,000.00,029.2,026.7,000.0,037.5,030.8,21.2,0001.5,0013.21,0005.15,0004.37
2023-08-14 21:01:00,SystemResetWarning,0839.3,5.00,000.00,029.2,025.6,000.0,037.3,030.5,21.3,0001.4,0013.23,0005.12,0004.35
2023-08-14 21:02:00,SystemResetWarning,0839.3,5.02,000.00,029.1,025.7,000.0,037.3,030.4,21.6,0000.3,0011.89,0005.13,0004.36
2023-08-14 21:03:00,SystemResetWarning,0839.3,5.00,000.00,029.0,026.0,000.0,037.4,030.4,21.9,0000.0,0010.62,0005.14,0004.35
2023-08-14 21:04:00,SystemResetWarning,0839.3,5.00,000.00,029.0,026.3,000.0,037.4,030.5,21.8,0000.0,0009.59,0005.12,0004.34
2023-08-14 21:05:00,SystemResetWarning,0839.2,5.00,000.00,029.0,026.7,000.0,037.4,030.6,21.5,0000.0,0009.60,0005.09,0004.32
2023-08-14 21:06:00,SystemResetWarning,0839.2,4.99,000.00,029.1,027.0,000.0,037.5,030.7,21.3,0000.0,0009.50,0005.04,0004.32
2023-08-14 21:07:00,SystemResetWarning,0839.2,5.00,000.00,029.1,027.3,000.0,037.5,030.8,21.2,0000.0,0009.51,0005.03,0004.32
2023-08-14 21:08:00,SystemResetWarning,0839.2,4.99,000.00,029.1,027.6,000.0,037.5,030.9,21.4,0000.0,0009.52,0005.02,0004.31
2023-08-14 21:09:00,SystemResetWarning,0839.2,5.00,000.00,029.2,027.8,000.0,037.6,031.0,21.6,0000.0,0009.70,0004.98,0004.29
2023-08-14 21:10:00,SystemResetWarning,0839.2,5.00,000.00,029.2,027.0,000.0,037.5,030.8,21.2,0000.0,0010.16,0004.94,0004.28
2023-08-14 21:11:00,SystemResetWarning,0839.2,5.00,000.00,029.1,025.1,000.0,037.3,030.4,21.2,0000.0,0010.44,0004.95,0004.27
2023-08-14 21:12:00,SystemResetWarning,0839.2,5.02,000.00,029.0,024.6,000.0,037.2,030.2,21.3,0000.0,0010.39,0004.93,0004.27
2023-08-14 21:13:00,SystemResetWarning,0839.2,5.00,000.00,028.9,024.9,000.0,037.2,030.1,21.5,0000.0,0011.09,0004.92,0004.26
2023-08-14 21:14:00,SystemResetWarning,0839.2,5.00,000.00,028.9,025.3,000.0,037.3,030.1,21.5,0000.0,0011.38,0004.91,0004.26
2023-08-14 21:15:00,SystemResetWarning,0839.2,5.00,000.00,028.9,025.8,000.0,037.3,030.3,21.8,0000.0,0012.20,0004.92,0004.26
2023-08-14 21:16:00,SystemResetWarning,0839.2,5.00,000.00,028.9,026.2,000.0,037.3,030.4,21.4,0000.0,0012.73,0004.88,0004.26
2023-08-14 21:17:00,SystemResetWarning,0839.2,5.00,000.00,028.9,026.6,000.0,037.3,030.5,21.4,0000.0,0013.84,0004.86,0004.26
2023-08-14 21:18:00,SystemResetWarning,0839.2,4.99,000.00,028.9,027.0,000.0,037.4,030.6,21.4,0000.0,0014.17,0004.86,0004.25
2023-08-14 21:19:00,SystemResetWarning,0839.3,5.00,000.00,029.0,027.3,000.0,037.4,030.7,21.5,0000.0,0014.00,0004.86,0004.25
2023-08-14 21:20:00,SystemResetWarning,0839.2,5.00,000.00,029.0,027.5,000.0,037.4,030.8,21.4,0000.0,0014.04,0004.89,0004.27
2023-08-14 21:21:00,SystemResetWarning,0839.2,5.00,000.00,029.1,027.7,000.0,037.4,030.8,21.7,0000.0,0013.91,0004.94,0004.29
2023-08-14 21:22:00,SystemResetWarning,0839.1,5.00,000.00,029.1,027.9,000.0,037.4,030.9,21.5,0000.0,0013.86,0004.96,0004.29
2023-08-14 21:23:00,SystemResetWarning,0839.2,4.98,000.00,029.1,026.6,000.0,037.3,030.6,21.6,0000.0,0013.97,0004.98,0004.30
2023-08-14 21:24:00,SystemResetWarning,0839.1,5.01,000.00,029.0,024.8,000.0,037.2,030.2,21.2,0000.0,0013.39,0005.00,0004.33
2023-08-14 21:25:00,SystemResetWarning,0839.1,5.01,000.00,028.9,024.6,000.0,037.1,030.1,21.5,0000.0,0014.22,0005.06,0004.34
2023-08-14 21:26:00,SystemResetWarning,0839.1,5.00,000.00,028.9,025.0,000.0,037.2,030.1,21.7,0000.0,0015.65,0005.10,0004.35
2023-08-14 21:27:00,SystemResetWarning,0839.2,4.99,000.00,028.8,025.4,000.0,037.2,030.2,22.0,0000.0,0015.68,0005.10,0004.36
2023-08-14 21:28:00,SystemResetWarning,0839.2,5.00,000.00,028.8,025.9,000.0,037.2,030.3,21.5,0000.0,0015.05,0005.12,0004.37
2023-08-14 21:29:00,SystemResetWarning,0839.2,5.00,000.00,028.8,026.3,000.0,037.2,030.4,21.4,0000.0,0014.80,0005.14,0004.39
2023-08-14 21:30:00,SystemResetWarning,0839.2,5.00,000.00,028.9,026.7,000.0,037.3,030.5,21.6,0000.4,0014.82,0005.13,0004.39
2023-08-14 21:31:00,SystemResetWarning,0839.2,5.00,000.00,028.9,027.1,000.0,037.3,030.6,21.5,0000.4,0014.59,0005.11,0004.38
2023-08-14 21:32:00,SystemResetWarning,0839.1,5.00,000.00,028.9,027.3,000.0,037.3,030.7,21.5,0001.2,0014.30,0005.08,0004.37
2023-08-14 21:33:00,SystemResetWarning,0839.2,5.00,000.00,029.0,027.6,000.0,037.3,030.8,21.5,0001.3,0014.44,0005.08,0004.36
2023-08-14 21:34:00,SystemResetWarning,0839.2,5.00,000.00,029.1,027.8,000.0,037.4,030.9,21.4,0001.5,0014.53,0005.07,0004.36
2023-08-14 21:35:00,SystemResetWarning,0839.2,5.01,000.00,029.1,028.0,000.0,037.4,030.9,21.2,0001.7,0014.59,0005.09,0004.36
2023-08-14 21:36:00,SystemResetWarning,0839.2,4.99,000.00,029.1,027.3,000.0,037.3,030.8,21.2,0002.0,0014.38,0005.05,0004.35
2023-08-14 21:37:00,SystemResetWarning,0839.1,5.00,000.00,029.1,025.8,000.0,037.2,030.4,21.2,0000.2,0012.93,0005.02,0004.35
2023-08-14 21:38:00,SystemResetWarning,0839.2,5.02,000.00,029.0,025.7,000.0,037.2,030.4,21.1,0001.1,0012.35,0005.01,0004.33
2023-08-14 21:39:00,SystemResetWarning,0839.2,5.00,000.00,028.9,025.9,000.0,037.2,030.3,21.0,0000.8,0012.02,0005.06,0004.31
2023-08-14 21:40:00,SystemResetWarning,0839.1,5.00,000.00,028.9,026.3,000.0,037.3,030.4,21.3,0000.0,0012.76,0005.10,0004.30
2023-08-14 21:41:00,SystemResetWarning,0839.1,5.00,000.00,029.0,026.6,000.0,037.3,030.6,21.4,0000.0,0013.27,0005.12,0004.29
2023-08-14 21:42:00,SystemResetWarning,0839.2,4.99,000.00,029.0,027.0,000.0,037.3,030.7,21.7,0000.0,0014.01,0005.15,0004.30
2023-08-14 21:43:00,SystemResetWarning,0839.1,4.98,000.00,029.0,027.3,000.0,037.4,030.8,21.5,0000.0,0014.01,0005.14,0004.29
2023-08-14 21:44:00,SystemResetWarning,0839.2,5.01,000.00,029.1,027.5,000.0,037.4,030.8,21.9,0000.0,0014.10,0005.14,0004.30
2023-08-14 21:45:00,SystemResetWarning,0839.2,5.01,000.00,029.1,027.8,000.0,037.4,030.9,21.3,0000.0,0013.98,0005.14,0004.29
2023-08-14 21:46:00,SystemResetWarning,0839.2,4.98,000.00,029.2,027.4,000.0,037.4,030.9,20.9,0000.0,0014.07,0005.14,0004.28
2023-08-14 21:47:00,SystemResetWarning,0839.1,4.99,000.00,029.1,025.9,000.0,037.3,030.5,20.8,0000.0,0014.24,0005.12,0004.28
2023-08-14 21:48:00,SystemResetWarning,0839.2,5.01,000.00,029.1,025.6,000.0,037.2,030.4,20.9,0000.0,0013.88,0005.11,0004.27
2023-08-14 21:49:00,SystemResetWarning,0839.1,5.00,000.00,029.0,025.9,000.0,037.3,030.4,20.9,0000.0,0013.73,0005.11,0004.26
2023-08-14 21:50:00,SystemResetWarning,0839.2,5.00,000.00,029.0,026.2,000.0,037.3,030.4,20.9,0000.0,0013.45,0005.07,0004.26
2023-08-14 21:51:00,SystemResetWarning,0839.2,5.00,000.00,029.0,026.6,000.0,037.4,030.6,21.0,0000.0,0012.60,0005.04,0004.28
2023-08-14 21:52:00,SystemResetWarning,0839.2,5.01,000.00,029.0,027.0,000.0,037.4,030.7,20.9,0000.0,0012.87,0005.02,0004.28
2023-08-14 21:53:00,SystemResetWarning,0839.2,4.99,000.00,029.1,027.3,000.0,037.4,030.8,21.2,0000.0,0012.25,0005.00,0004.29
2023-08-14 21:54:00,SystemResetWarning,0839.2,4.99,000.00,029.1,027.6,000.0,037.4,030.9,21.1,0000.0,0013.15,0005.02,0004.30
2023-08-14 21:55:00,SystemResetWarning,0839.2,5.00,000.00,029.2,027.8,000.0,037.5,030.9,21.4,0000.0,0013.27,0005.01,0004.31
2023-08-14 21:56:00,SystemResetWarning,0839.2,5.00,000.00,029.2,026.7,000.0,037.4,030.7,20.8,0000.0,0012.98,0004.99,0004.31
2023-08-14 21:57:00,SystemResetWarning,0839.2,5.00,000.00,029.1,025.6,000.0,037.3,030.5,20.3,0000.0,0012.61,0004.98,0004.32
2023-08-14 21:58:00,SystemResetWarning,0839.2,5.01,000.00,029.1,025.7,000.0,037.2,030.4,20.3,0000.0,0012.41,0004.99,0004.31
2023-08-14 21:59:00,SystemResetWarning,0839.2,5.00,000.00,029.0,026.0,000.0,037.3,030.4,20.4,0000.0,0012.22,0004.98,0004.33
